Time,TemperatureF,DewpointF,PressureIn,WindDirection,WindDirectionDegrees,WindSpeedMPH,WindSpeedGustMPH,Humidity,HourlyPrecipIn,Conditions,Clouds,dailyrainin,SoftwareType,DateUTC
2013-04-28 00:00:00,54.5,40.0,29.58,ESE,118,1.0,1.0,58,0.00,,,0.00,Wunderground v.1.15,2013-04-28 05:00:00,
2013-04-28 00:10:00,54.3,40.3,29.58,ESE,118,1.0,2.0,59,0.00,,,0.00,Wunderground v.1.15,2013-04-28 05:10:00,
2013-04-28 00:15:00,54.2,40.2,29.58,ESE,118,1.0,2.0,59,0.00,,,0.00,Wunderground v.1.15,2013-04-28 05:15:00,
2013-04-28 00:20:00,54.2,40.6,29.58,ESE,118,1.0,2.0,60,0.00,,,0.00,Wunderground v.1.15,2013-04-28 05:20:00,
2013-04-28 00:25:00,54.1,40.9,29.58,ESE,118,1.0,2.0,61,0.00,,,0.00,Wunderground v.1.15,2013-04-28 05:25:00,
2013-04-28 00:30:00,54.0,40.8,29.57,ESE,118,0.0,1.0,61,0.00,,,0.00,Wunderground v.1.15,2013-04-28 05:30:00,
2013-04-28 00:35:00,53.7,40.6,29.58,ESE,118,0.0,1.0,61,0.00,,,0.00,Wunderground v.1.15,2013-04-28 05:35:00,
2013-04-28 00:45:00,53.3,40.2,29.58,ESE,118,0.0,0.0,61,0.00,,,0.00,Wunderground v.1.15,2013-04-28 05:45:00,
2013-04-28 00:55:00,53.4,40.3,29.57,SE,128,1.0,2.0,61,0.00,,,0.00,Wunderground v.1.15,2013-04-28 05:55:00,
2013-04-28 01:00:00,53.7,40.6,29.57,SE,138,2.0,2.0,61,0.00,,,0.00,Wunderground v.1.15,2013-04-28 06:00:00,
2013-04-28 01:10:00,53.6,40.9,29.56,SSE,149,2.0,2.0,62,0.00,,,0.00,Wunderground v.1.15,2013-04-28 06:10:00,
2013-04-28 01:15:00,53.6,40.9,29.56,SSE,149,2.0,2.0,62,0.00,,,0.00,Wunderground v.1.15,2013-04-28 06:15:00,
2013-04-28 01:20:00,53.6,40.5,29.56,SSE,148,2.0,3.0,61,0.00,,,0.00,Wunderground v.1.15,2013-04-28 06:20:00,
2013-04-28 01:25:00,53.7,40.6,29.56,SSE,163,2.0,3.0,61,0.00,,,0.00,Wunderground v.1.15,2013-04-28 06:25:00,
2013-04-28 01:30:00,53.9,40.8,29.56,SSE,155,2.0,2.0,61,0.00,,,0.00,Wunderground v.1.15,2013-04-28 06:30:00,
2013-04-28 01:40:00,54.2,41.0,29.56,SSE,153,3.0,3.0,61,0.00,,,0.00,Wunderground v.1.15,2013-04-28 06:40:00,
2013-04-28 01:45:00,54.2,41.0,29.56,SSE,152,2.0,3.0,61,0.00,,,0.00,Wunderground v.1.15,2013-04-28 06:45:00,
2013-04-28 01:50:00,54.1,40.9,29.56,SSE,163,2.0,2.0,61,0.00,,,0.00,Wunderground v.1.15,2013-04-28 06:50:00,
2013-04-28 01:55:00,53.9,40.3,29.55,SSE,153,2.0,5.0,60,0.00,,,0.00,Wunderground v.1.15,2013-04-28 06:55:00,
2013-04-28 02:00:00,53.7,40.1,29.55,SSE,159,2.0,2.0,60,0.00,,,0.00,Wunderground v.1.15,2013-04-28 07:00:00,
2013-04-28 02:10:00,53.6,40.0,29.55,SSE,160,2.0,2.0,60,0.00,,,0.00,Wunderground v.1.15,2013-04-28 07:10:00,
2013-04-28 02:15:00,53.7,40.1,29.55,SSE,154,3.0,3.0,60,0.00,,,0.00,Wunderground v.1.15,2013-04-28 07:15:00,
2013-04-28 02:20:00,53.7,40.1,29.54,SSE,150,3.0,3.0,60,0.00,,,0.00,Wunderground v.1.15,2013-04-28 07:20:00,
2013-04-28 02:30:00,53.4,40.3,29.54,SE,146,1.0,1.0,61,0.00,,,0.00,Wunderground v.1.15,2013-04-28 07:30:00,
2013-04-28 02:35:00,53.2,40.5,29.54,SSE,147,0.0,1.0,62,0.00,,,0.00,Wunderground v.1.15,2013-04-28 07:35:00,
2013-04-28 02:45:00,52.4,40.6,29.53,SE,146,0.0,0.0,64,0.00,,,0.00,Wunderground v.1.15,2013-04-28 07:45:00,
2013-04-28 02:50:00,52.1,40.7,29.53,SSE,147,0.0,0.0,65,0.00,,,0.00,Wunderground v.1.15,2013-04-28 07:50:00,
2013-04-28 02:55:00,51.8,40.8,29.53,SSE,147,0.0,0.0,66,0.00,,,0.00,Wunderground v.1.15,2013-04-28 07:55:00,
2013-04-28 03:00:00,51.5,40.5,29.53,SE,146,0.0,0.0,66,0.00,,,0.00,Wunderground v.1.15,2013-04-28 08:00:00,
2013-04-28 03:10:00,51.2,39.4,29.52,SSE,147,0.0,1.0,64,0.00,,,0.00,Wunderground v.1.15,2013-04-28 08:10:00,
2013-04-28 03:15:00,51.2,39.0,29.52,SE,146,0.0,1.0,63,0.00,,,0.00,Wunderground v.1.15,2013-04-28 08:15:00,
2013-04-28 03:20:00,51.3,39.1,29.52,SSE,147,0.0,0.0,63,0.00,,,0.00,Wunderground v.1.15,2013-04-28 08:20:00,
2013-04-28 03:25:00,51.4,39.2,29.52,SE,146,0.0,2.0,63,0.00,,,0.00,Wunderground v.1.15,2013-04-28 08:25:00,
2013-04-28 03:30:00,51.5,39.3,29.52,SSE,147,1.0,1.0,63,0.00,,,0.00,Wunderground v.1.15,2013-04-28 08:30:00,
2013-04-28 03:35:00,51.5,39.3,29.52,SE,146,1.0,1.0,63,0.00,,,0.00,Wunderground v.1.15,2013-04-28 08:35:00,
2013-04-28 03:40:00,51.5,39.7,29.52,SSE,147,1.0,1.0,64,0.00,,,0.00,Wunderground v.1.15,2013-04-28 08:40:00,
2013-04-28 03:50:00,51.5,39.7,29.52,SE,146,0.0,0.0,64,0.00,,,0.00,Wunderground v.1.15,2013-04-28 08:50:00,
2013-04-28 03:55:00,51.5,39.7,29.52,SSE,147,0.0,0.0,64,0.00,,,0.00,Wunderground v.1.15,2013-04-28 08:55:00,
2013-04-28 04:00:00,51.5,40.1,29.53,SE,146,0.0,0.0,65,0.00,,,0.00,Wunderground v.1.15,2013-04-28 09:00:00,
2013-04-28 04:10:00,51.4,40.0,29.53,SSE,147,0.0,0.0,65,0.00,,,0.00,Wunderground v.1.15,2013-04-28 09:10:00,
2013-04-28 04:15:00,51.5,39.3,29.52,SSW,197,0.0,0.0,63,0.00,,,0.00,Wunderground v.1.15,2013-04-28 09:15:00,
2013-04-28 04:25:00,51.9,39.7,29.52,SSW,197,0.0,0.0,63,0.00,,,0.00,Wunderground v.1.15,2013-04-28 09:25:00,
2013-04-28 04:30:00,52.1,39.9,29.53,SSW,196,0.0,0.0,63,0.00,,,0.00,Wunderground v.1.15,2013-04-28 09:30:00,
2013-04-28 04:35:00,52.1,40.3,29.53,SSW,197,0.0,0.0,64,0.00,,,0.00,Wunderground v.1.15,2013-04-28 09:35:00,
2013-04-28 04:40:00,52.0,40.2,29.53,SSW,197,0.0,0.0,64,0.00,,,0.00,Wunderground v.1.15,2013-04-28 09:40:00,
2013-04-28 04:45:00,51.9,40.1,29.53,SSW,196,0.0,0.0,64,0.00,,,0.00,Wunderground v.1.15,2013-04-28 09:45:00,
2013-04-28 04:50:00,51.7,40.3,29.53,SSW,196,0.0,0.0,65,0.00,,,0.00,Wunderground v.1.15,2013-04-28 09:50:00,
2013-04-28 05:00:00,51.3,39.9,29.53,SSW,196,0.0,0.0,65,0.00,,,0.00,Wunderground v.1.15,2013-04-28 10:00:00,
2013-04-28 05:10:00,51.1,40.1,29.53,SSW,196,0.0,0.0,66,0.00,,,0.00,Wunderground v.1.15,2013-04-28 10:10:00,
2013-04-28 05:20:00,50.9,39.9,29.54,SSW,196,0.0,0.0,66,0.00,,,0.00,Wunderground v.1.15,2013-04-28 10:20:00,
2013-04-28 05:25:00,50.7,39.7,29.53,SSW,196,0.0,0.0,66,0.00,,,0.00,Wunderground v.1.15,2013-04-28 10:25:00,
2013-04-28 05:35:00,50.6,40.0,29.54,SSW,197,0.0,0.0,67,0.00,,,0.00,Wunderground v.1.15,2013-04-28 10:35:00,
2013-04-28 05:40:00,50.6,40.0,29.53,SSW,196,0.0,0.0,67,0.00,,,0.00,Wunderground v.1.15,2013-04-28 10:40:00,
2013-04-28 05:45:00,50.8,39.5,29.53,West,274,0.0,1.0,65,0.00,,,0.00,Wunderground v.1.15,2013-04-28 10:45:00,
2013-04-28 05:50:00,51.7,38.7,29.54,West,277,1.0,4.0,61,0.00,,,0.00,Wunderground v.1.15,2013-04-28 10:50:00,
2013-04-28 06:00:00,53.8,38.9,29.54,West,262,2.0,2.0,57,0.00,,,0.00,Wunderground v.1.15,2013-04-28 11:00:00,
2013-04-28 06:10:00,54.6,38.7,29.54,West,262,2.0,2.0,55,0.00,,,0.00,Wunderground v.1.15,2013-04-28 11:10:00,
2013-04-28 06:15:00,54.6,38.7,29.54,West,262,2.0,2.0,55,0.00,,,0.00,Wunderground v.1.15,2013-04-28 11:15:00,
2013-04-28 06:20:00,54.5,38.7,29.54,West,271,2.0,2.0,55,0.00,,,0.00,Wunderground v.1.15,2013-04-28 11:20:00,
2013-04-28 06:25:00,54.4,38.6,29.55,West,279,2.0,2.0,55,0.00,,,0.00,Wunderground v.1.15,2013-04-28 11:25:00,
2013-04-28 06:30:00,54.3,38.0,29.54,WNW,284,2.0,2.0,54,0.00,,,0.00,Wunderground v.1.15,2013-04-28 11:30:00,
2013-04-28 06:35:00,54.5,38.2,29.55,WNW,297,2.0,2.0,54,0.00,,,0.00,Wunderground v.1.15,2013-04-28 11:35:00,
2013-04-28 06:40:00,54.6,38.3,29.55,WNW,296,2.0,2.0,54,0.00,,,0.00,Wunderground v.1.15,2013-04-28 11:40:00,
2013-04-28 06:45:00,54.6,38.3,29.55,WNW,296,2.0,2.0,54,0.00,,,0.00,Wunderground v.1.15,2013-04-28 11:45:00,
2013-04-28 06:55:00,54.3,38.5,29.55,WNW,298,2.0,3.0,55,0.00,,,0.00,Wunderground v.1.15,2013-04-28 11:55:00,
2013-04-28 07:00:00,54.2,38.4,29.55,WNW,287,2.0,3.0,55,0.00,,,0.00,Wunderground v.1.15,2013-04-28 12:00:00,
2013-04-28 07:10:00,54.1,38.7,29.56,WNW,286,2.0,2.0,56,0.00,,,0.00,Wunderground v.1.15,2013-04-28 12:10:00,
2013-04-28 07:20:00,53.8,38.5,29.56,WNW,301,2.0,3.0,56,0.00,,,0.00,Wunderground v.1.15,2013-04-28 12:20:00,
2013-04-28 07:25:00,53.8,38.5,29.56,West,281,2.0,3.0,56,0.00,,,0.00,Wunderground v.1.15,2013-04-28 12:25:00,
2013-04-28 07:30:00,53.9,38.6,29.56,West,279,2.0,2.0,56,0.00,,,0.00,Wunderground v.1.15,2013-04-28 12:30:00,
2013-04-28 07:35:00,54.0,39.1,29.56,West,274,3.0,3.0,57,0.00,,,0.00,Wunderground v.1.15,2013-04-28 12:35:00,
2013-04-28 07:40:00,54.2,38.8,29.56,WNW,284,3.0,3.0,56,0.00,,,0.00,Wunderground v.1.15,2013-04-28 12:40:00,
2013-04-28 07:45:00,54.5,38.7,29.57,West,281,3.0,3.0,55,0.00,,,0.00,Wunderground v.1.15,2013-04-28 12:45:00,
2013-04-28 07:55:00,55.1,39.2,29.57,West,279,4.0,5.0,55,0.00,,,0.00,Wunderground v.1.15,2013-04-28 12:55:00,
2013-04-28 08:00:00,55.5,39.1,29.57,WNW,286,4.0,4.0,54,0.00,,,0.00,Wunderground v.1.15,2013-04-28 13:00:00,
2013-04-28 08:10:00,56.3,38.9,29.58,WNW,292,3.0,3.0,52,0.00,,,0.00,Wunderground v.1.15,2013-04-28 13:10:00,
2013-04-28 08:15:00,56.7,39.3,29.58,NW,319,3.0,3.0,52,0.00,,,0.00,Wunderground v.1.15,2013-04-28 13:15:00,
2013-04-28 08:20:00,57.3,38.8,29.58,WNW,294,3.0,3.0,50,0.00,,,0.00,Wunderground v.1.15,2013-04-28 13:20:00,
2013-04-28 08:25:00,57.8,38.8,29.58,NW,319,4.0,4.0,49,0.00,,,0.00,Wunderground v.1.15,2013-04-28 13:25:00,
2013-04-28 08:30:00,58.3,39.2,29.58,NW,325,4.0,4.0,49,0.00,,,0.00,Wunderground v.1.15,2013-04-28 13:30:00,
2013-04-28 08:35:00,58.7,38.5,29.58,NW,325,5.0,8.0,47,0.00,,,0.00,Wunderground v.1.15,2013-04-28 13:35:00,
2013-04-28 08:40:00,59.0,38.2,29.58,West,281,6.0,6.0,46,0.00,,,0.00,Wunderground v.1.15,2013-04-28 13:40:00,
2013-04-28 08:45:00,59.0,38.2,29.58,NW,313,7.0,7.0,46,0.00,,,0.00,Wunderground v.1.15,2013-04-28 13:45:00,
2013-04-28 08:50:00,59.0,37.7,29.58,NNW,328,8.0,14.0,45,0.00,,,0.00,Wunderground v.1.15,2013-04-28 13:50:00,
2013-04-28 08:55:00,59.0,37.7,29.59,NW,326,8.0,14.0,45,0.00,,,0.00,Wunderground v.1.15,2013-04-28 13:55:00,
2013-04-28 09:00:00,59.1,37.8,29.59,NW,315,9.0,9.0,45,0.00,,,0.00,Wunderground v.1.15,2013-04-28 14:00:00,
2013-04-28 09:10:00,59.1,37.8,29.59,NNW,336,8.0,8.0,45,0.00,,,0.00,Wunderground v.1.15,2013-04-28 14:10:00,
2013-04-28 09:15:00,59.0,38.2,29.59,NNW,338,7.0,9.0,46,0.00,,,0.00,Wunderground v.1.15,2013-04-28 14:15:00,
2013-04-28 09:25:00,59.0,38.2,29.59,NW,315,8.0,13.0,46,0.00,,,0.00,Wunderground v.1.15,2013-04-28 14:25:00,
2013-04-28 09:35:00,59.0,38.2,29.60,NW,320,9.0,11.0,46,0.00,,,0.00,Wunderground v.1.15,2013-04-28 14:35:00,
2013-04-28 09:40:00,59.0,38.2,29.60,NNW,338,8.0,8.0,46,0.00,,,0.00,Wunderground v.1.15,2013-04-28 14:40:00,
2013-04-28 09:45:00,59.0,38.2,29.60,NW,314,8.0,8.0,46,0.00,,,0.00,Wunderground v.1.15,2013-04-28 14:45:00,
2013-04-28 09:50:00,59.0,38.2,29.61,NW,321,8.0,14.0,46,0.00,,,0.00,Wunderground v.1.15,2013-04-28 14:50:00,
2013-04-28 09:55:00,59.0,38.8,29.61,NW,309,9.0,15.0,47,0.00,,,0.00,Wunderground v.1.15,2013-04-28 14:55:00,
2013-04-28 10:00:00,59.0,38.2,29.61,NW,321,10.0,10.0,46,0.00,,,0.00,Wunderground v.1.15,2013-04-28 15:00:00,
2013-04-28 10:10:00,59.1,38.9,29.61,NW,326,9.0,10.0,47,0.00,,,0.00,Wunderground v.1.15,2013-04-28 15:10:00,
2013-04-28 10:15:00,59.3,39.1,29.62,NW,319,9.0,10.0,47,0.00,,,0.00,Wunderground v.1.15,2013-04-28 15:15:00,
2013-04-28 10:20:00,59.4,38.6,29.62,NW,326,10.0,11.0,46,0.00,,,0.00,Wunderground v.1.15,2013-04-28 15:20:00,
2013-04-28 10:25:00,59.5,38.7,29.62,NW,313,10.0,11.0,46,0.00,,,0.00,Wunderground v.1.15,2013-04-28 15:25:00,
2013-04-28 10:30:00,59.7,39.4,29.61,North,360,10.0,12.0,47,0.00,,,0.00,Wunderground v.1.15,2013-04-28 15:30:00,
2013-04-28 10:40:00,60.3,38.9,29.63,NW,308,9.0,9.0,45,0.00,,,0.00,Wunderground v.1.15,2013-04-28 15:40:00,
2013-04-28 10:45:00,60.5,39.0,29.62,NNW,330,8.0,19.0,45,0.00,,,0.00,Wunderground v.1.15,2013-04-28 15:45:00,
2013-04-28 10:50:00,60.6,39.1,29.64,NNW,331,8.0,8.0,45,0.00,,,0.00,Wunderground v.1.15,2013-04-28 15:50:00,
2013-04-28 10:55:00,60.6,39.1,29.64,NW,313,7.0,8.0,45,0.00,,,0.00,Wunderground v.1.15,2013-04-28 15:55:00,
2013-04-28 11:00:00,60.6,38.6,29.64,NW,319,9.0,9.0,44,0.00,,,0.00,Wunderground v.1.15,2013-04-28 16:00:00,
2013-04-28 11:10:00,60.8,39.3,29.64,NW,310,9.0,14.0,45,0.00,,,0.00,Wunderground v.1.15,2013-04-28 16:10:00,
2013-04-28 11:15:00,60.9,38.8,29.63,NW,309,7.0,14.0,44,0.00,,,0.00,Wunderground v.1.15,2013-04-28 16:15:00,
2013-04-28 11:20:00,61.2,38.5,29.63,NW,323,7.0,7.0,43,0.00,,,0.00,Wunderground v.1.15,2013-04-28 16:20:00,
2013-04-28 11:25:00,61.4,39.3,29.63,NW,324,6.0,8.0,44,0.00,,,0.00,Wunderground v.1.15,2013-04-28 16:25:00,
2013-04-28 11:30:00,61.7,39.0,29.64,WNW,299,5.0,5.0,43,0.00,,,0.00,Wunderground v.1.15,2013-04-28 16:30:00,
2013-04-28 11:35:00,61.7,38.4,29.64,NNW,329,6.0,7.0,42,0.00,,,0.00,Wunderground v.1.15,2013-04-28 16:35:00,
2013-04-28 11:40:00,61.7,38.4,29.64,WNW,301,8.0,8.0,42,0.00,,,0.00,Wunderground v.1.15,2013-04-28 16:40:00,
2013-04-28 11:50:00,61.8,39.1,29.64,NW,319,5.0,5.0,43,0.00,,,0.00,Wunderground v.1.15,2013-04-28 16:50:00,
2013-04-28 11:55:00,61.9,39.1,29.64,West,261,5.0,7.0,43,0.00,,,0.00,Wunderground v.1.15,2013-04-28 16:55:00,
2013-04-28 12:00:00,61.9,38.5,29.64,WNW,288,5.0,5.0,42,0.00,,,0.00,Wunderground v.1.15,2013-04-28 17:00:00,
2013-04-28 12:10:00,62.0,39.2,29.65,NW,304,4.0,4.0,43,0.00,,,0.00,Wunderground v.1.15,2013-04-28 17:10:00,
2013-04-28 12:15:00,61.8,39.1,29.64,NW,313,5.0,5.0,43,0.00,,,0.00,Wunderground v.1.15,2013-04-28 17:15:00,
2013-04-28 12:20:00,61.7,39.6,29.65,NW,309,5.0,5.0,44,0.00,,,0.00,Wunderground v.1.15,2013-04-28 17:20:00,
2013-04-28 12:30:00,61.8,39.1,29.65,NW,323,5.0,6.0,43,0.00,,,0.00,Wunderground v.1.15,2013-04-28 17:30:00,
2013-04-28 12:35:00,62.2,40.0,29.65,NNW,336,4.0,6.0,44,0.00,,,0.00,Wunderground v.1.15,2013-04-28 17:35:00,
2013-04-28 12:40:00,62.5,40.3,29.65,West,278,5.0,5.0,44,0.00,,,0.00,Wunderground v.1.15,2013-04-28 17:40:00,
2013-04-28 12:45:00,62.9,39.4,29.65,NNW,335,6.0,9.0,42,0.00,,,0.00,Wunderground v.1.15,2013-04-28 17:45:00,
2013-04-28 12:55:00,63.6,39.5,29.66,NW,323,9.0,9.0,41,0.00,,,0.00,Wunderground v.1.15,2013-04-28 17:55:00,
2013-04-28 13:00:00,64.0,40.4,29.66,NW,321,8.0,8.0,42,0.00,,,0.00,Wunderground v.1.15,2013-04-28 18:00:00,
2013-04-28 13:10:00,64.0,39.8,29.66,West,278,8.0,9.0,41,0.00,,,0.00,Wunderground v.1.15,2013-04-28 18:10:00,
2013-04-28 13:20:00,63.8,40.3,29.66,NNW,331,9.0,9.0,42,0.00,,,0.00,Wunderground v.1.15,2013-04-28 18:20:00,
2013-04-28 13:25:00,63.8,40.3,29.67,NNW,338,8.0,9.0,42,0.00,,,0.00,Wunderground v.1.15,2013-04-28 18:25:00,
2013-04-28 13:30:00,63.9,39.7,29.67,NNW,340,9.0,9.0,41,0.00,,,0.00,Wunderground v.1.15,2013-04-28 18:30:00,
2013-04-28 13:35:00,63.7,40.2,29.67,NW,321,10.0,10.0,42,0.00,,,0.00,Wunderground v.1.15,2013-04-28 18:35:00,
2013-04-28 13:40:00,63.8,39.6,29.67,NW,317,9.0,10.0,41,0.00,,,0.00,Wunderground v.1.15,2013-04-28 18:40:00,
2013-04-28 13:45:00,64.0,40.4,29.67,NNE,21,8.0,13.0,42,0.00,,,0.00,Wunderground v.1.15,2013-04-28 18:45:00,
2013-04-28 13:50:00,64.6,41.0,29.67,North,355,8.0,10.0,42,0.00,,,0.00,Wunderground v.1.15,2013-04-28 18:50:00,
2013-04-28 13:55:00,65.1,41.4,29.67,NW,311,9.0,16.0,42,0.00,,,0.00,Wunderground v.1.15,2013-04-28 18:55:00,
2013-04-28 14:00:00,65.4,41.1,29.67,NNW,348,11.0,19.0,41,0.00,,,0.00,Wunderground v.1.15,2013-04-28 19:00:00,
2013-04-28 14:10:00,65.4,40.4,29.67,NNE,12,10.0,12.0,40,0.00,,,0.00,Wunderground v.1.15,2013-04-28 19:10:00,
2013-04-28 14:15:00,65.3,39.7,29.67,NNE,21,9.0,12.0,39,0.00,,,0.00,Wunderground v.1.15,2013-04-28 19:15:00,
2013-04-28 14:20:00,64.8,37.9,29.67,NNE,31,11.0,11.0,37,0.00,,,0.00,Wunderground v.1.15,2013-04-28 19:20:00,
2013-04-28 14:25:00,65.0,38.1,29.67,North,5,9.0,18.0,37,0.00,,,0.00,Wunderground v.1.15,2013-04-28 19:25:00,
2013-04-28 14:30:00,65.3,37.6,29.68,NNE,21,9.0,9.0,36,0.00,,,0.00,Wunderground v.1.15,2013-04-28 19:30:00,
2013-04-28 14:35:00,65.4,36.3,29.68,North,360,10.0,16.0,34,0.00,,,0.00,Wunderground v.1.15,2013-04-28 19:35:00,
2013-04-28 14:45:00,66.1,36.1,29.68,ENE,58,10.0,10.0,33,0.00,,,0.00,Wunderground v.1.15,2013-04-28 19:45:00,
2013-04-28 14:50:00,66.6,37.3,29.68,NNW,342,9.0,21.0,34,0.00,,,0.00,Wunderground v.1.15,2013-04-28 19:50:00,
2013-04-28 14:55:00,67.1,32.9,29.68,North,360,9.0,21.0,28,0.00,,,0.00,Wunderground v.1.15,2013-04-28 19:55:00,
2013-04-28 15:00:00,67.1,34.6,29.68,NNE,19,10.0,10.0,30,0.00,,,0.00,Wunderground v.1.15,2013-04-28 20:00:00,
2013-04-28 15:10:00,67.1,32.9,29.68,NNE,17,10.0,10.0,28,0.00,,,0.00,Wunderground v.1.15,2013-04-28 20:10:00,
2013-04-28 15:15:00,67.1,31.0,29.69,NE,42,10.0,10.0,26,0.00,,,0.00,Wunderground v.1.15,2013-04-28 20:15:00,
2013-04-28 15:25:00,66.9,32.7,29.69,NNE,15,10.0,18.0,28,0.00,,,0.00,Wunderground v.1.15,2013-04-28 20:25:00,
2013-04-28 15:30:00,67.1,31.0,29.70,NNW,327,10.0,15.0,26,0.00,,,0.00,Wunderground v.1.15,2013-04-28 20:30:00,
2013-04-28 15:35:00,66.8,29.8,29.70,North,360,10.0,15.0,25,0.00,,,0.00,Wunderground v.1.15,2013-04-28 20:35:00,
2013-04-28 15:40:00,66.2,30.3,29.70,NE,40,10.0,10.0,26,0.00,,,0.00,Wunderground v.1.15,2013-04-28 20:40:00,
2013-04-28 15:45:00,66.2,32.1,29.70,NNE,24,9.0,10.0,28,0.00,,,0.00,Wunderground v.1.15,2013-04-28 20:45:00,
2013-04-28 15:50:00,66.8,30.8,29.70,NNW,345,9.0,9.0,26,0.00,,,0.00,Wunderground v.1.15,2013-04-28 20:50:00,
2013-04-28 15:55:00,66.9,30.9,29.70,NW,317,10.0,10.0,26,0.00,,,0.00,Wunderground v.1.15,2013-04-28 20:55:00,
2013-04-28 16:00:00,66.3,31.3,29.71,NNW,338,10.0,14.0,27,0.00,,,0.00,Wunderground v.1.15,2013-04-28 21:00:00,
2013-04-28 16:10:00,66.5,31.5,29.70,NNW,346,10.0,10.0,27,0.00,,,0.00,Wunderground v.1.15,2013-04-28 21:10:00,
2013-04-28 16:15:00,66.1,30.2,29.71,NNW,346,11.0,11.0,26,0.00,,,0.00,Wunderground v.1.15,2013-04-28 21:15:00,
2013-04-28 16:20:00,65.6,29.8,29.71,North,360,12.0,14.0,26,0.00,,,0.00,Wunderground v.1.15,2013-04-28 21:20:00,
2013-04-28 16:25:00,65.2,29.4,29.71,NW,311,11.0,15.0,26,0.00,,,0.00,Wunderground v.1.15,2013-04-28 21:25:00,
2013-04-28 16:30:00,64.8,29.1,29.71,North,10,10.0,13.0,26,0.00,,,0.00,Wunderground v.1.15,2013-04-28 21:30:00,
2013-04-28 16:40:00,65.0,29.2,29.71,North,5,9.0,14.0,26,0.00,,,0.00,Wunderground v.1.15,2013-04-28 21:40:00,
2013-04-28 16:45:00,64.9,28.2,29.71,ENE,59,9.0,15.0,25,0.00,,,0.00,Wunderground v.1.15,2013-04-28 21:45:00,
2013-04-28 16:50:00,64.8,29.1,29.71,ENE,64,10.0,10.0,26,0.00,,,0.00,Wunderground v.1.15,2013-04-28 21:50:00,
2013-04-28 16:55:00,65.0,29.2,29.71,North,5,9.0,10.0,26,0.00,,,0.00,Wunderground v.1.15,2013-04-28 21:55:00,
2013-04-28 17:00:00,65.4,28.6,29.72,NNW,338,8.0,12.0,25,0.00,,,0.00,Wunderground v.1.15,2013-04-28 22:00:00,
2013-04-28 17:10:00,65.6,28.8,29.72,NE,42,8.0,11.0,25,0.00,,,0.00,Wunderground v.1.15,2013-04-28 22:10:00,
2013-04-28 17:20:00,65.6,28.8,29.72,North,360,8.0,12.0,25,0.00,,,0.00,Wunderground v.1.15,2013-04-28 22:20:00,
2013-04-28 17:25:00,65.6,29.8,29.72,NE,51,8.0,12.0,26,0.00,,,0.00,Wunderground v.1.15,2013-04-28 22:25:00,
2013-04-28 17:30:00,65.4,28.6,29.72,North,5,9.0,16.0,25,0.00,,,0.00,Wunderground v.1.15,2013-04-28 22:30:00,
2013-04-28 17:35:00,65.4,28.6,29.72,NNE,15,9.0,16.0,25,0.00,,,0.00,Wunderground v.1.15,2013-04-28 22:35:00,
2013-04-28 17:40:00,64.8,29.1,29.73,North,5,9.0,9.0,26,0.00,,,0.00,Wunderground v.1.15,2013-04-28 22:40:00,
2013-04-28 17:45:00,64.6,28.9,29.73,NNE,14,10.0,10.0,26,0.00,,,0.00,Wunderground v.1.15,2013-04-28 22:45:00,
2013-04-28 17:50:00,64.6,28.9,29.73,North,355,9.0,14.0,26,0.00,,,0.00,Wunderground v.1.15,2013-04-28 22:50:00,
2013-04-28 17:55:00,64.5,29.7,29.73,North,360,9.0,14.0,27,0.00,,,0.00,Wunderground v.1.15,2013-04-28 22:55:00,
2013-04-28 18:00:00,64.5,28.8,29.73,NE,38,9.0,9.0,26,0.00,,,0.00,Wunderground v.1.15,2013-04-28 23:00:00,
2013-04-28 18:10:00,64.0,29.3,29.73,North,355,8.0,8.0,27,0.00,,,0.00,Wunderground v.1.15,2013-04-28 23:10:00,
2013-04-28 18:15:00,64.0,28.4,29.74,NNW,344,8.0,8.0,26,0.00,,,0.00,Wunderground v.1.15,2013-04-28 23:15:00,
2013-04-28 18:20:00,64.0,29.3,29.74,NNW,342,9.0,11.0,27,0.00,,,0.00,Wunderground v.1.15,2013-04-28 23:20:00,
2013-04-28 18:25:00,63.8,28.2,29.74,North,9,9.0,11.0,26,0.00,,,0.00,Wunderground v.1.15,2013-04-28 23:25:00,
2013-04-28 18:30:00,63.4,28.8,29.74,NNW,338,9.0,9.0,27,0.00,,,0.00,Wunderground v.1.15,2013-04-28 23:30:00,
2013-04-28 18:35:00,63.2,28.6,29.74,North,11,8.0,9.0,27,0.00,,,0.00,Wunderground v.1.15,2013-04-28 23:35:00,
2013-04-28 18:45:00,62.8,28.3,29.75,NNE,24,8.0,9.0,27,0.00,,,0.00,Wunderground v.1.15,2013-04-28 23:45:00,
2013-04-28 18:55:00,62.5,28.0,29.75,NNE,33,6.0,10.0,27,0.00,,,0.00,Wunderground v.1.15,2013-04-28 23:55:00,
2013-04-28 19:00:00,62.4,27.9,29.75,North,355,6.0,10.0,27,0.00,,,0.00,Wunderground v.1.15,2013-04-29 00:00:00,
2013-04-28 19:10:00,62.2,28.7,29.75,NNE,15,7.0,9.0,28,0.00,,,0.00,Wunderground v.1.15,2013-04-29 00:10:00,
2013-04-28 19:15:00,61.9,28.4,29.75,NNE,16,6.0,9.0,28,0.00,,,0.00,Wunderground v.1.15,2013-04-29 00:15:00,
2013-04-28 19:20:00,61.7,28.2,29.75,North,355,6.0,11.0,28,0.00,,,0.00,Wunderground v.1.15,2013-04-29 00:20:00,
2013-04-28 19:25:00,61.2,27.8,29.75,NE,41,7.0,11.0,28,0.00,,,0.00,Wunderground v.1.15,2013-04-29 00:25:00,
2013-04-28 19:30:00,61.0,27.6,29.75,NE,34,6.0,6.0,28,0.00,,,0.00,Wunderground v.1.15,2013-04-29 00:30:00,
2013-04-28 19:35:00,60.8,27.5,29.75,North,5,5.0,6.0,28,0.00,,,0.00,Wunderground v.1.15,2013-04-29 00:35:00,
2013-04-28 19:40:00,60.5,28.1,29.75,NE,53,6.0,7.0,29,0.00,,,0.00,Wunderground v.1.15,2013-04-29 00:40:00,
2013-04-28 19:45:00,60.0,27.6,29.75,NNE,31,7.0,7.0,29,0.00,,,0.00,Wunderground v.1.15,2013-04-29 00:45:00,
2013-04-28 19:50:00,59.6,28.1,29.76,NE,34,6.0,7.0,30,0.00,,,0.00,Wunderground v.1.15,2013-04-29 00:50:00,
2013-04-28 19:55:00,59.2,27.7,29.76,NNE,28,5.0,7.0,30,0.00,,,0.00,Wunderground v.1.15,2013-04-29 00:55:00,
2013-04-28 20:00:00,59.0,27.6,29.76,NNE,19,5.0,5.0,30,0.00,,,0.00,Wunderground v.1.15,2013-04-29 01:00:00,
2013-04-28 20:10:00,58.0,26.7,29.76,NNE,15,5.0,6.0,30,0.00,,,0.00,Wunderground v.1.15,2013-04-29 01:10:00,
2013-04-28 20:15:00,57.5,26.3,29.76,NE,40,4.0,6.0,30,0.00,,,0.00,Wunderground v.1.15,2013-04-29 01:15:00,
2013-04-28 20:20:00,57.0,26.6,29.77,NE,40,3.0,3.0,31,0.00,,,0.00,Wunderground v.1.15,2013-04-29 01:20:00,
2013-04-28 20:25:00,56.4,26.1,29.77,NE,42,4.0,4.0,31,0.00,,,0.00,Wunderground v.1.15,2013-04-29 01:25:00,
2013-04-28 20:35:00,55.1,25.7,29.77,NE,41,4.0,5.0,32,0.00,,,0.00,Wunderground v.1.15,2013-04-29 01:35:00,
2013-04-28 20:40:00,54.5,24.4,29.76,NNE,23,4.0,4.0,31,0.00,,,0.00,Wunderground v.1.15,2013-04-29 01:40:00,
2013-04-28 20:45:00,54.0,23.2,29.77,North,360,3.0,4.0,30,0.00,,,0.00,Wunderground v.1.15,2013-04-29 01:45:00,
2013-04-28 20:50:00,53.3,22.6,29.77,NE,34,2.0,3.0,30,0.00,,,0.00,Wunderground v.1.15,2013-04-29 01:50:00,
2013-04-28 20:55:00,52.7,22.9,29.77,NNE,15,3.0,3.0,31,0.00,,,0.00,Wunderground v.1.15,2013-04-29 01:55:00,
2013-04-28 21:00:00,52.2,23.2,29.77,North,360,3.0,4.0,32,0.00,,,0.00,Wunderground v.1.15,2013-04-29 02:00:00,
2013-04-28 21:10:00,51.4,23.9,29.78,NNE,15,2.0,2.0,34,0.00,,,0.00,Wunderground v.1.15,2013-04-29 02:10:00,
2013-04-28 21:15:00,51.0,25.0,29.78,NNE,24,2.0,2.0,36,0.00,,,0.00,Wunderground v.1.15,2013-04-29 02:15:00,
2013-04-28 21:20:00,50.4,25.1,29.78,NNE,24,2.0,2.0,37,0.00,,,0.00,Wunderground v.1.15,2013-04-29 02:20:00,
2013-04-28 21:25:00,49.9,25.3,29.78,NNE,29,2.0,3.0,38,0.00,,,0.00,Wunderground v.1.15,2013-04-29 02:25:00,
2013-04-28 21:30:00,49.3,25.4,29.78,NNE,21,4.0,10.0,39,0.00,,,0.00,Wunderground v.1.15,2013-04-29 02:30:00,
2013-04-28 21:35:00,48.9,25.6,29.78,NE,46,5.0,10.0,40,0.00,,,0.00,Wunderground v.1.15,2013-04-29 02:35:00,
2013-04-28 21:40:00,48.6,25.9,29.78,NNE,16,4.0,6.0,41,0.00,,,0.00,Wunderground v.1.15,2013-04-29 02:40:00,
2013-04-28 21:45:00,48.3,25.7,29.78,NNE,22,4.0,6.0,41,0.00,,,0.00,Wunderground v.1.15,2013-04-29 02:45:00,
2013-04-28 21:50:00,48.2,25.6,29.78,NNE,12,4.0,4.0,41,0.00,,,0.00,Wunderground v.1.15,2013-04-29 02:50:00,
2013-04-28 21:55:00,48.1,25.5,29.78,North,11,4.0,4.0,41,0.00,,,0.00,Wunderground v.1.15,2013-04-29 02:55:00,
2013-04-28 22:00:00,47.9,25.3,29.79,NE,54,5.0,5.0,41,0.00,,,0.00,Wunderground v.1.15,2013-04-29 03:00:00,
2013-04-28 22:10:00,47.0,25.1,29.78,NE,53,4.0,5.0,42,0.00,,,0.00,Wunderground v.1.15,2013-04-29 03:10:00,
2013-04-28 22:15:00,46.5,25.2,29.78,NE,39,4.0,10.0,43,0.00,,,0.00,Wunderground v.1.15,2013-04-29 03:15:00,
2013-04-28 22:20:00,46.1,25.4,29.79,NE,46,5.0,5.0,44,0.00,,,0.00,Wunderground v.1.15,2013-04-29 03:20:00,
2013-04-28 22:25:00,45.6,25.5,29.78,NE,56,5.0,5.0,45,0.00,,,0.00,Wunderground v.1.15,2013-04-29 03:25:00,
2013-04-28 22:30:00,45.3,25.7,29.78,NE,40,4.0,6.0,46,0.00,,,0.00,Wunderground v.1.15,2013-04-29 03:30:00,
2013-04-28 22:35:00,45.2,26.1,29.78,NNE,27,5.0,6.0,47,0.00,,,0.00,Wunderground v.1.15,2013-04-29 03:35:00,
2013-04-28 22:40:00,45.0,26.0,29.78,NE,51,5.0,6.0,47,0.00,,,0.00,Wunderground v.1.15,2013-04-29 03:40:00,
2013-04-28 22:45:00,45.0,26.0,29.78,NE,49,5.0,6.0,47,0.00,,,0.00,Wunderground v.1.15,2013-04-29 03:45:00,
2013-04-28 22:55:00,44.4,25.4,29.78,NE,38,3.0,4.0,47,0.00,,,0.00,Wunderground v.1.15,2013-04-29 03:55:00,
2013-04-28 23:00:00,44.2,25.2,29.78,NE,41,5.0,9.0,47,0.00,,,0.00,Wunderground v.1.15,2013-04-29 04:00:00,
2013-04-28 23:05:00,43.9,25.5,29.78,NE,52,6.0,9.0,48,0.00,,,0.00,Wunderground v.1.15,2013-04-29 04:05:00,
2013-04-28 23:10:00,43.3,25.4,29.79,NNE,28,5.0,7.0,49,0.00,,,0.00,Wunderground v.1.15,2013-04-29 04:10:00,
2013-04-28 23:15:00,42.9,25.5,29.78,NE,53,4.0,7.0,50,0.00,,,0.00,Wunderground v.1.15,2013-04-29 04:15:00,
2013-04-28 23:20:00,42.5,25.1,29.78,NE,48,4.0,4.0,50,0.00,,,0.00,Wunderground v.1.15,2013-04-29 04:20:00,
2013-04-28 23:30:00,42.1,24.8,29.78,NNE,33,4.0,6.0,50,0.00,,,0.00,Wunderground v.1.15,2013-04-29 04:30:00,
2013-04-28 23:35:00,41.8,25.0,29.78,NNE,30,4.0,6.0,51,0.00,,,0.00,Wunderground v.1.15,2013-04-29 04:35:00,
2013-04-28 23:40:00,41.7,24.9,29.78,NE,34,4.0,4.0,51,0.00,,,0.00,Wunderground v.1.15,2013-04-29 04:40:00,
2013-04-28 23:45:00,41.5,24.2,29.78,NE,41,3.0,6.0,50,0.00,,,0.00,Wunderground v.1.15,2013-04-29 04:45:00,
2013-04-28 23:50:00,41.5,23.7,29.78,NE,47,3.0,3.0,49,0.00,,,0.00,Wunderground v.1.15,2013-04-29 04:50:00,
2013-04-28 23:55:00,41.5,22.7,29.78,NNE,22,2.0,3.0,47,0.00,,,0.00,Wunderground v.1.15,2013-04-29 04:55:00,